Kosmos-2068

operational
NORAD ID: 20553 Int'l Des: 1990-029 Owner: UNKS Country: SU
LEOCIRCULAR

Kosmos-2068について

説明を読み込み中...

リアルタイム位置

3D地球を読み込み中...

次回通過

高度履歴

Altitude vs Time

uPlot chart will show altitude changes over time

軌道要素

1 20553U 90029E 26062.11481691 -.00000029 00000-0 -79252-4 0 9994
2 20553 73.9807 209.0906 0030907 15.5750 99.5621 12.56272327646655
Epoch: Mar 3, 2026 • Age: 32 hours

現在のステータス

高度 1470.7 km
速度 7.13 km/s
衛星直下点 -74.05°S, 167.67°W
打ち上げ日 Apr 6, 1990
運用期間 35.9 years
タイプ other

技術仕様

分類 Payload
質量 60.00 kg
乾燥質量 60.00 kg
総質量 60.00 kg
長さ 0.80 m
直径 0.80 m
スパン 0.80 m
形状 Poly
製造者 NPOPM
バスタイプ Strela-1 11F625
フェーズステータス In Orbit
所有者/国 UNKS/SU

大規模コンステレーション

Loading constellations...